Location: Unspecified
(0.0000°N, 0.0000°E)
Time: 11:14:36
(UTC+00:00)

deb Explorer IX - Pass Details

Date: 26 November 2019
Orbit: 546 x 1104 km, 38.8° (Epoch: 14 December)

Event Time Altitude Azimuth Distance (km) Brightness Sun altitude
Rises 15:58:40 0° 189° (S) 3,345 ? 25.2°
Reaches altitude 10° 16:03:44 10° 151° (SSE) 2,583 ? 24.1°
Maximum altitude 16:04:57 11° 140° (SE) 2,580 ? 23.8°
Drops below altitude 10° 16:06:13 10° 128° (SE) 2,659 ? 23.5°
Sets 16:11:50 0° 92° (E) 3,756 ? 22.2°
